Torna al catalogo

SCOUT G-1 DEB

AttivoPO
NORAD 19078·DEBRIS·🇺🇸 United States

Lanciato Apr 26, 1988 da Vandenberg Space Force Base

Loading…

Prossimi Passaggi (prossime 24 ore)

TLE

AggiornatoSource: Space-Track

Epoca: Sep 14, 2026, 06:30 UTC

1 19078U 88033E   26257.27085456  .00000090  00000-0  13772-3 0  9998
2 19078  90.5564   2.0375 0161272  23.0799   5.4152 13.40912751875697

Traccia SCOUT G-1 DEB in tempo reale con AllMySat

Download on the App Store